Location: Newark
(42.8481°N, 0.4872°E)
Time: 23:40:58
(UTC+00:00)

Transit 2A - Pass Details

Date: 30 October 2020
Orbit: 595 x 963 km, 66.7° (Epoch: 03 December)

Event Time Altitude Azimuth Distance (km) Brightness Sun altitude
Rises 23:49:40 0° 196° (SSW) 3,601 - -61.3°
Reaches altitude 10° 23:52:14 10° 192° (SSW) 2,679 - -61.2°
Maximum altitude 23:58:26 58° 115° (ESE) 1,111 - -61.1°
Drops below altitude 10° 00:04:35 10° 38° (NE) 2,664 - -60.9°
Sets 00:07:07 0° 35° (NE) 3,581 - -60.8°
